EHI
0 0 0 0 0 0 0 0 0 0 0 0 0 0 0 0 0 0 0 0 0 0 0 0 0 0 0 0 0 0 0 0 0 0 0 0 0 0 0 0 0 0 0 0
0 0 0 0 0 0 0 0 0 0 0 0 0 0 0 0 0 0 0 0 0 0 0 0 0 0 0 0 0 0 0 0 0 0 0 0 0 0 0 0 0 0 0 0
0 0 0 0 0 0 0 0 0 0 0 0 0 0 0 0 0 0 0 0 0 0 0 0 0 0 0 0 0 0 0 0 0 0 0 0 0 0 0 0 0 0 0 0
0 0 0 0 0 0 0 0 0 0 0 0 0 0 0 0 0 0 0 0 0 0 0 0 0 0 0 0 0 0 0 0 0 0 0 0 0 0 0 0 0 0 0 0
0 0 0 0 0 0 0 0 0 0 0 0 0 0 0 0 0 0 0 0 0 0 0 0 0 0 0 0 0 0 0 0 0 0 0 0 0 0 0 0 0 0 0 0
0 0 0 0 0 0 0 0 0 0 0 0 0 0 0 0 0 0 0 0 0 0 0 0 0 0 0 0 0 0 0 0 0 0 0 0 0 0 0 0 0 0 0 0
0 0 0 0 0 0 0 0 0 0 0 0 0 0 0 0 0 0 0 0 0 0 0 0 0 0 0 0 0 0 0 0 0 0 0 0 0 0 0 0 0 0 0 0
0 0 0 0 0 0 0 0 0 0 0 0 0 0 0 0 0 0 0 0 0 0 0 0 0 0 0 0 0 0 0 0 0 0 0 0 0 0 0 0 0 0 0 0
0 0 0 0 0 0 0 0 0 0 0 0 0 0 0 0 0 0 0 0 0 0 0 0 0 0 0 0 0 0 0 0 0 0 0 0 0 0 0 0 0 0 0 0
0 0 0 0 0 0 0 0 0 0 0 0 0 0 0 0 0 0 0 0 0 0 0 0 0 0 0 0 0 0 0 0 0 0 0 0 0 0 0 0 0 0 0 0
0 0 0 0 0 0 0 0 0 0 0 0 0 0 0 0 0 0 0 0 0 0 0 0 0 0 0 0 0 0 0 0 0 0 0 0 0 0 0 0 0 0 0 0
0 0 0 0 0 0 0 0 0 0 0 0 0 0 0 0 0 0 0 0 0 0 0 0 0 0 0 0 0 0 0 0 0 0 0 0 0 0 0 0 0 0 0 0
0 0 0 0 0 0 0 0 0 0 0 0 0 0 0 0 0 0 0 0 0 0 0 0 0 0 0 0 0 0 0 0 0 0 0 0 0 0 0 0 0 0 0 0
0 0 0 0 0 0 0 0 0 0 0 0 0 0 0 0 0 0 0 0 0 0 0 0 0 0 0 0 0 0 0 0 0 0 0 0 0 0 0 0 0 0 0 0
0 0 0 0 0 0 0 0 0 0 0 0 0 0 0 0 0 0 0 0 0 0 0 0 0 0 0 0 0 0 0 0 0 0 0 0 0 0 0 0 0 0 0 0
0 0 0 0 0 0 0 0 0 0 0 0 0 0 0 0 0 0 0 0 0 0 0 0 0 0 0 0 0 0 0 0 0 0 0 0 0 0 0 0 0 0 0 0
0 0 0 0 0 0 0 0 0 0 0 0 0 0 0 0 0 0 0 0 0 0 0 0 0 0 0 0 0 0 0 0 0 0 0 0 0 0 0 0 0 0 0 0
0 0 0 0 0 0 0 0 0 0 0 0 0 0 0 0 0 0 0 0 0 0 0 0 0 0 0 0 0 0 0 0 0 0 0 0 0 0 0 0 0 0 0 0
0 0 0 0 0 0 0 0 0 0 0 0 0 0 0 0 0 0 0 0 0 0 0 0 0 0 0 0 0 0 0 0 0 0 0 0 0 0 0 0 0 0 0 0
0 0 0 0 0 0 0 0 0 0 0 0 0 0 0 0 0 0 0 0 0 0 0 0 0 0 0 0 0 0 0 0 0 0 0 0 0 0 0 0 0 0 0 0
0 0 0 0 0 0 0 0 0 0 0 0 0 0 0 0 0 0 0 0 0 0 0 0 0 0 0 0 0 0 0 0 0 0 0 0 0 0 0 0 0 0 0 0
0 0 0 0 0 0 0 0 0 0 0 0 0 0 0 0 0 0 0 0 0 0 0 0 0 0 0 0 0 0 0 0 0 0 0 0 0 0 0 0 0 0 0 0
0 0 0 0 0 0 0 0 0 0 0 0 0 0 0 0 0 0 0 0 0 0 0 0 0 0 0 0 0 0 0 0 0 0 0 0 0 0 0 0 0 0 0 0
0 0 0 0 0 0 0 0 0 0 0 0 0 0 0 0 0 0 0 0 0 0 0 0 0 0 0 0 0 0 0 0 0 0 0 0 0 0 0 0 0 0 0 0
0 0 0 0 0 0 0 0 0 0 0 0 0 0 0 0 0 0 0 0 0 0 0 0 0 0 0 0 0 0 0 0 0 0 0 0 0 0 0 0 0 0 0 0
0 0 0 0 0 0 0 0 0 0 0 0 0 0 0 0 0 0 0 0 0 0 0 0 0 0 0 0 0 0 0 0 0 0 0 0 0 0 0 0 0 0 0 0
Wind_Speed
2 2 3 5 4 2 5 6 4 4 2 4 6 5 4 3 5 6 6 5 5 4 1 1 1 2 2 3 3 2 2 2 2 2 2 2 2 2 2 3 3 3 4 4
3 2 3 3 3 2 3 5 4 1 0 3 3 5 5 5 6 7 8 7 7 4 2 1 2 2 3 3 3 3 2 2 2 2 2 2 2 1 1 1 1 1 2 2
3 2 3 3 3 3 1 5 5 3 2 2 1 4 6 6 4 5 6 6 6 8 7 4 3 3 3 3 3 3 3 3 2 1 2 2 2 1 1 0 0 1 1 1
0 1 3 4 4 4 2 2 4 5 4 1 2 4 7 6 6 8 8 7 7 6 6 5 4 4 4 3 3 4 4 4 3 2 2 2 2 1 0 0 0 1 2 2
1 1 3 4 4 4 2 1 3 3 4 1 1 3 9 3 8 11 10 9 8 7 8 7 6 5 4 3 4 4 5 5 5 4 3 2 2 1 0 1 2 2 2 3
0 1 1 2 3 3 3 4 5 4 3 3 5 5 9 6 9 7 7 8 8 8 7 7 5 5 4 4 4 4 5 5 5 5 4 4 3 2 1 2 2 2 2 3
1 1 0 1 5 3 3 4 2 1 2 6 3 6 11 8 8 7 8 7 6 8 9 9 8 6 5 5 4 4 5 5 4 5 5 4 4 3 2 1 1 2 2 2
3 2 2 1 3 5 4 5 5 5 5 3 2 9 10 6 5 6 7 5 6 8 8 8 8 7 6 6 5 5 5 4 4 5 4 4 4 3 2 3 2 2 2 2
4 2 1 1 1 5 5 3 3 4 1 2 6 8 11 4 4 4 4 5 8 8 8 8 7 6 6 6 5 5 5 5 4 4 4 4 4 4 4 3 3 2 2 2
4 3 1 1 2 1 2 5 4 4 4 4 5 5 6 6 6 4 4 6 6 7 7 7 6 6 5 5 4 4 5 5 4 3 3 4 4 4 4 4 4 4 4 4
3 3 2 2 4 6 4 3 3 3 3 4 4 8 6 6 6 6 7 6 7 8 8 7 6 5 5 5 5 5 5 4 4 4 4 4 4 4 4 4 4 4 4 4
3 3 2 3 1 2 3 5 6 5 4 4 3 9 4 4 6 6 6 5 6 6 6 6 6 5 5 5 5 5 4 4 4 4 4 4 4 4 5 5 4 4 5 5
5 4 2 1 1 2 3 4 5 3 3 4 5 9 3 2 2 2 4 5 6 6 6 5 5 6 6 5 5 5 4 4 4 4 4 4 4 4 4 4 4 5 5 5
5 3 5 7 4 5 5 5 7 6 5 6 9 9 8 5 4 3 4 6 6 6 7 6 6 6 6 6 6 5 5 4 5 4 4 4 4 4 4 4 4 5 5 5
4 3 4 4 3 4 6 7 9 11 10 9 9 10 12 7 6 6 5 6 6 7 7 8 8 7 6 6 6 5 5 5 5 5 4 4 4 4 4 4 5 5 5 6
2 2 1 3 2 4 6 8 10 12 11 12 11 15 9 6 4 5 7 8 9 10 10 9 8 8 8 8 7 7 6 5 5 5 5 4 4 4 4 4 4 5 5 5
2 3 2 3 2 2 8 11 13 9 9 10 15 15 6 6 8 9 10 10 12 11 10 10 10 10 9 9 9 8 7 6 6 6 5 5 5 5 5 5 5 5 4 5
5 4 2 1 0 8 9 3 6 8 9 11 10 9 8 11 9 7 8 10 11 10 9 9 8 8 7 8 7 7 7 7 7 6 6 6 6 5 5 5 5 4 4 4
7 6 3 2 3 9 8 4 5 6 8 8 12 12 9 5 2 5 7 9 10 9 7 7 7 7 8 9 9 9 8 7 7 7 6 6 6 6 6 5 5 4 4 3
3 4 4 4 4 7 7 2 3 3 6 4 5 8 5 4 3 6 4 6 5 4 4 5 6 6 8 8 9 9 8 8 8 7 7 6 6 6 6 5 5 3 4 3
4 4 6 6 6 8 7 3 4 3 6 3 3 4 5 7 6 3 1 3 4 4 4 6 7 7 7 9 9 9 8 8 7 6 6 6 6 6 6 5 4 4 4 4
7 6 6 6 7 10 4 5 6 7 3 2 2 2 4 4 2 1 1 3 4 4 5 6 6 6 6 8 9 8 8 6 6 7 7 6 6 5 5 5 4 4 5 4
7 7 6 8 9 5 3 6 5 3 3 3 2 2 2 2 2 2 2 2 3 4 4 4 6 6 5 6 8 8 7 7 8 7 7 6 6 5 5 6 6 4 4 3
4 2 3 5 8 6 6 6 5 4 4 4 2 2 3 3 3 3 2 3 3 3 4 5 6 6 6 6 6 6 7 8 8 8 7 6 6 5 5 4 5 5 5 4
5 2 3 6 7 7 6 5 5 4 3 3 2 2 3 3 3 3 3 4 4 4 4 5 6 6 7 6 6 6 8 9 8 7 7 6 6 6 5 5 5 5 5 6
6 8 7 8 6 5 6 4 3 4 4 4 3 2 2 3 4 3 3 3 4 4 4 5 5 6 6 7 7 7 8 9 9 7 7 6 5 5 5 4 3 7 8 10
Wind_Direction
102 114 178 187 189 164 141 140 160 201 214 174 209 232 244 230 214 225 232 225 222 227 249 21 57 85 97 88 109 129 133 134 138 136 154 172 198 201 205 212 219 218 218 214
89 190 191 161 157 124 146 152 162 180 199 167 208 245 253 240 224 219 222 220 214 208 200 156 95 84 92 97 95 97 99 97 123 152 153 159 159 174 189 197 206 220 225 226
146 190 170 162 153 142 196 178 166 159 89 53 103 282 254 255 239 235 227 220 210 201 196 186 152 119 104 95 93 97 90 80 68 92 114 94 86 67 62 28 320 319 288 257
42 253 157 161 176 149 195 193 162 143 132 230 166 256 269 246 255 243 234 224 213 201 187 179 166 142 123 107 92 87 81 70 53 58 100 141 163 187 199 328 344 357 10 358
176 131 155 175 178 155 168 112 122 133 131 107 183 225 275 255 248 247 235 224 213 195 183 176 168 147 122 106 93 83 77 63 51 56 79 105 120 153 45 36 30 21 20 16
84 28 148 165 138 137 121 79 66 61 93 230 209 199 269 233 224 241 238 221 204 185 172 160 145 131 115 99 90 86 80 62 49 56 61 81 97 89 75 39 22 12 12 13
80 47 49 136 121 106 110 110 102 119 203 242 187 209 249 243 230 231 243 233 200 176 164 158 154 149 138 122 105 94 91 73 57 61 58 61 72 78 78 52 36 23 16 10
146 186 195 163 159 159 168 155 165 183 204 255 213 233 253 255 264 257 253 227 183 174 169 165 163 155 147 136 124 113 103 91 73 69 62 54 57 64 59 50 53 46 33 14
158 191 117 143 126 140 146 182 152 126 129 235 252 276 297 265 273 268 244 195 183 178 172 165 159 154 150 141 135 129 118 102 85 79 77 62 57 63 63 54 50 45 30 31
151 154 160 141 106 69 152 141 123 147 172 233 268 262 255 279 271 267 233 208 189 172 167 163 161 158 152 142 131 121 117 112 98 83 80 81 64 63 65 63 54 47 37 36
139 142 141 155 194 180 152 161 163 169 184 181 252 266 231 243 266 258 242 214 187 177 175 172 165 157 147 137 133 127 122 115 103 92 84 80 70 66 66 63 54 48 45 42
157 130 164 218 219 176 184 188 168 181 217 193 209 268 271 260 269 248 229 202 188 182 177 170 163 155 153 151 145 140 135 126 119 110 99 89 80 74 70 65 56 55 56 51
149 134 121 358 259 186 215 206 189 169 157 182 200 260 287 310 300 239 205 191 183 181 177 170 168 173 172 166 159 153 147 139 129 119 110 98 88 83 78 73 67 64 65 61
136 150 180 196 209 183 201 206 189 183 207 219 225 252 282 294 296 269 214 199 191 190 185 183 187 188 182 174 168 161 155 146 138 129 121 113 106 102 95 88 78 72 71 69
131 195 225 242 236 193 211 213 201 211 216 222 237 238 253 255 250 240 216 200 196 201 200 198 196 192 183 177 173 166 160 154 145 137 132 129 123 114 105 95 85 77 74 73
144 192 210 281 254 223 243 233 220 225 228 236 251 258 249 245 232 225 214 202 206 211 211 206 199 191 189 185 178 170 166 160 149 146 146 142 136 126 116 108 98 89 80 73
183 167 174 262 288 321 261 227 214 213 209 205 235 249 237 232 229 226 218 209 212 214 210 205 201 197 193 186 176 175 168 155 153 155 155 154 149 140 133 124 114 104 95 87
171 163 178 232 93 244 245 232 206 220 240 225 239 252 238 235 239 233 215 209 215 213 208 207 199 191 181 170 165 158 154 157 160 162 164 163 157 149 141 133 128 119 106 98
182 169 179 188 241 277 289 260 194 203 264 234 236 251 254 250 274 270 228 210 214 211 204 197 185 172 162 163 159 153 156 160 165 171 173 171 164 158 153 151 145 133 123 112
163 167 183 195 223 250 256 260 173 136 282 270 228 247 242 163 214 261 231 199 200 183 168 157 146 144 156 160 154 156 163 169 180 179 174 168 165 163 162 159 149 137 135 132
159 189 210 217 238 262 255 237 134 187 252 280 247 246 202 195 217 250 165 152 154 146 143 142 147 155 163 158 156 163 170 184 180 166 161 162 164 163 159 152 147 145 141 135
187 191 203 200 223 251 231 149 186 224 252 274 273 252 207 218 230 186 142 139 139 136 138 146 150 155 156 160 161 169 183 178 159 158 161 163 163 163 158 155 155 153 151 153
209 201 195 202 221 242 205 212 233 221 242 258 253 243 182 189 210 189 167 155 153 153 153 153 154 155 162 170 171 178 180 161 159 161 166 166 165 166 163 167 168 162 165 170
262 217 212 254 264 267 262 254 256 235 238 252 243 218 186 199 204 194 185 175 168 166 170 163 160 169 180 182 184 182 166 163 163 169 172 169 170 173 174 176 177 176 181 185
247 218 234 258 275 295 282 249 250 256 250 256 256 223 207 200 208 201 201 196 189 181 176 175 181 188 191 183 186 178 168 166 170 173 175 177 178 178 182 187 194 192 199 192
211 204 209 239 238 236 267 286 277 258 254 242 231 245 237 203 207 198 204 198 187 187 182 187 193 194 190 185 188 182 176 174 174 179 183 183 182 183 184 186 205 224 216 223